Find Kosmos-2474

NORAD ID: 37829 Int'l Des: 2011-055 Owner: KVR/IACG Country: RU Constellation: GLONASS operational
MEOCIRCULAR

Current View

Loading 3D Globe...

About Kosmos-2474

Description loading...

Upcoming Passes

Passes for default location (London). Set your location on the main map for personalized predictions.

Altitude History

Loading altitude history...

Two-Line Element Set

1 37829U 11055A 26149.49308631 -.00000057 00000-0 00000+0 0 9999
2 37829 65.2793 73.5141 0010439 248.4373 285.7932 2.13101338114051
Epoch: May 29, 2026 • Age: 15 hours

Current Status

Altitude 19131.5 km
Velocity 3.96 km/s
Sub-Earth Point -61.34°S, 90.29°E
Launch Date Oct 2, 2011
Age 14.6 years
Type other

Technical Details

Classification Payload
Mass 1450.00 kg
Dry Mass 1200.00 kg
Total Mass 1450.00 kg
Length 4.00 m
Diameter 1.50 m
Span 7.80 m
Shape Cyl + Ant + 2 Pan
Manufacturer RESH
Bus Type Uragan
Phase Status In Orbit
Owner/State KVR/IACG/RU

Most Searched